TimeMST,TemperatureF,Dew PointF,Humidity,Sea Level PressureIn,VisibilityMPH,Wind Direction,Wind SpeedMPH,Gust SpeedMPH,PrecipitationIn,Events,Conditions,WindDirDegrees,DateUTC
12:53 AM,39.0,30.0,70,29.91,10.0,SW,5.8,-,N/A,,Clear,230,2013-03-03 07:53:00
1:53 AM,41.0,30.0,65,29.88,10.0,SW,4.6,-,N/A,,Clear,230,2013-03-03 08:53:00
2:53 AM,39.9,30.0,68,29.82,10.0,Calm,Calm,-,N/A,,Clear,0,2013-03-03 09:53:00
3:53 AM,37.0,30.0,76,29.81,10.0,SSW,3.5,-,N/A,,Clear,200,2013-03-03 10:53:00
4:53 AM,37.9,28.9,70,29.79,10.0,West,3.5,-,N/A,,Clear,270,2013-03-03 11:53:00
5:53 AM,39.0,28.0,65,29.78,10.0,Calm,Calm,-,N/A,,Clear,0,2013-03-03 12:53:00
6:53 AM,33.1,28.0,82,29.79,10.0,Calm,Calm,-,N/A,,Clear,0,2013-03-03 13:53:00
7:53 AM,37.9,30.0,73,29.77,10.0,Calm,Calm,-,N/A,,Scattered Clouds,0,2013-03-03 14:53:00
8:53 AM,52.0,30.9,45,29.72,10.0,WSW,8.1,-,N/A,,Clear,240,2013-03-03 15:53:00
9:53 AM,55.0,28.9,37,29.70,10.0,West,20.7,28.8,N/A,,Clear,270,2013-03-03 16:53:00
10:53 AM,59.0,28.9,32,29.66,10.0,WNW,20.7,29.9,N/A,,Clear,290,2013-03-03 17:53:00
11:53 AM,62.1,28.9,29,29.62,10.0,WNW,20.7,25.3,N/A,,Clear,300,2013-03-03 18:53:00
12:53 PM,64.9,28.0,25,29.58,10.0,NW,15.0,31.1,N/A,,Clear,310,2013-03-03 19:53:00
1:53 PM,66.0,27.0,23,29.53,10.0,NW,19.6,29.9,N/A,,Partly Cloudy,310,2013-03-03 20:53:00
2:53 PM,64.0,27.0,25,29.52,10.0,WNW,20.7,26.5,N/A,,Clear,290,2013-03-03 21:53:00
3:53 PM,63.0,28.9,28,29.54,10.0,West,17.3,-,N/A,,Overcast,280,2013-03-03 22:53:00
4:53 PM,62.1,28.9,29,29.53,10.0,West,19.6,27.6,N/A,,Overcast,260,2013-03-03 23:53:00
5:53 PM,55.0,28.9,37,29.55,10.0,West,15.0,-,N/A,,Clear,260,2013-03-04 00:53:00
6:53 PM,50.0,30.0,46,29.59,10.0,West,10.4,-,N/A,,Clear,270,2013-03-04 01:53:00
7:53 PM,42.1,30.0,62,29.60,10.0,SSW,6.9,-,N/A,,Clear,210,2013-03-04 02:53:00
8:53 PM,39.0,30.0,70,29.58,10.0,Calm,Calm,-,N/A,,Scattered Clouds,0,2013-03-04 03:53:00
9:53 PM,37.9,30.0,73,29.62,9.0,WNW,23.0,38.0,N/A,,Clear,290,2013-03-04 04:53:00
10:53 PM,35.1,27.0,72,29.68,10.0,West,21.9,-,N/A,,Clear,260,2013-03-04 05:53:00
11:53 PM,36.0,27.0,70,29.73,10.0,NW,10.4,-,N/A,,Overcast,310,2013-03-04 06:53:00